Regional Weather Roundup
Issued by NWS

Home | Current Version | Previous Version | Text Only | Print | Product List | Glossary On
Versions: 1 2 3 4 5 6 7 8 9 10 11 12 13 14 15 16 17 18 19 20 21 22 23 24 25 26 27 28 29 30 31 32 33 34 35 36 37 38 39 40 41 42 43 44 45 46 47 48 49 50
000
ASUS44 KBMX 011710
RWRAL

ALABAMA REGIONAL WEATHER ROUNDUP
NATIONAL WEATHER SERVICE BIRMINGHAM AL
1100 AM CST SUN FEB 01 2015

NOTE: "FAIR" INDICATES FEW OR NO CLOUDS BELOW 12,000 FEET
WITH NO SIGNIFICANT WEATHER AND/OR OBSTRUCTIONS TO VISIBILITY.

THE REMARK "TC" DENOTES TEMPERATURE IN DEGREES CELSIUS.

ALZ001>011-014-016>018-020-011800-
NORTH ALABAMA

CITY           SKY/WX    TMP DP  RH WIND       PRES   REMARKS
MUSCLE SHOALS  CLOUDY    50  46  86 S16       29.94F
HUNTSVILLE     LGT RAIN  50  45  83 S16G23    29.99F
DECATUR        LGT RAIN  48  46  93 S13       29.98F
HALEYVILLE       N/A     44  44 100 SE15G23   29.98F
GADSDEN        CLOUDY   N/A N/A N/A CALM      30.05F
$$

ALZ012-013-022-023-030>036-040>044-011800-
WEST CENTRAL ALABAMA

CITY           SKY/WX    TMP DP  RH WIND       PRES   REMARKS
TUSCALOOSA     CLOUDY    50  48  93 VRB5      30.02F
$$

ALZ015-024>027-033>036-040>044-011800-
CENTRAL ALABAMA

CITY           SKY/WX    TMP DP  RH WIND       PRES   REMARKS
BIRMINGHAM     LGT RAIN  50  47  89 SE8       30.05F FOG
MONTGOMERY     LGT RAIN  50  46  86 E7        30.10F
SHELBY CO ARPT RAIN      49  48  97 SE5       30.04F FOG
MAXWELL AFB    LGT RAIN  49  46  89 NE3       30.09F
GREENVILLE     LGT RAIN  52  50  93 SE8       30.07F
$$

ALZ019-021-028-029-037-038-045>048-011800-
EAST CENTRAL ALABAMA

CITY           SKY/WX    TMP DP  RH WIND       PRES   REMARKS
ANNISTON       LGT RAIN  50  44  80 NE7       30.08F
ALEXANDER CITY LGT RAIN  50  44  80 SE6       30.10F
AUBURN         CLOUDY    50  39  66 S9        30.15F
$$

ALZ051>064-011800-
SOUTHWEST ALABAMA

CITY           SKY/WX    TMP DP  RH WIND       PRES   REMARKS
MOBILE         LGT RAIN  58  57  97 SE7       30.04F FOG
BROOKLEY FIELD RAIN      61  59  93 S8        30.05F FOG
EVERGREEN      LGT RAIN  56  52  86 SE6       30.06F
$$

ALZ049-050-065>069-011800-
SOUTHEAST ALABAMA

CITY           SKY/WX    TMP DP  RH WIND       PRES   REMARKS
DOTHAN         CLOUDY    65  52  62 S18       30.13F
OZARK          CLOUDY    64  53  66 SE14G21   30.09F
TROY           LGT RAIN  55  49  80 E5        30.12F
EUFAULA        CLOUDY    62  48  60 S6        30.12F
$$


USA.gov is the U.S. government's official web portal to all federal, state and local government web resources and services.